Weather History for Challis, ID

Change the Weather History Date:

Thursday, December 5, 2013

  Actual Average Record
Temperature  
Mean Temperature -3 °F 20 °F  
Max Temperature 6 °F 29 °F 55 °F (1940)
Min Temperature -12 °F 11 °F -20 °F (1972)
Degree Days  
Heating Degree Days 68 45  
Month to date heating degree days 241 219  
Since 1 July heating degree days 2167 2262  
Cooling Degree Days 0 0  
Month to date cooling degree days 0 0  
Year to date cooling degree days 420 248  
Moisture  
Dew Point -10 °F    
Average Humidity 74    
Maximum Humidity 92    
Minimum Humidity 56    
Precipitation  
Precipitation 0.00 in 0.03 in 0.30 in (1919)
Month to date precipitation 0.11 0.13  
Year to date precipitation 4.76 9.45  
Sea Level Pressure  
Sea Level Pressure 30.33 in    
Wind  
Wind Speed 0 mph (SW)    
Max Wind Speed 5 mph    
Max Gust Speed 6 mph    
Visibility 10 miles    
Events      
T = Trace of Precipitation, MM = Missing Value Source: NWS Daily Summary

Daily Weather History Graph

Daily Weather History Graph

Search for Another Location

Airport:

Trip Planner

Search our weather history database for the weather conditions in past years. The results will help you decide how hot, cold, wet, or windy it might be!

Date:

Astronomy

Dec. 05, 2013 Rise Set
Actual Time 7:57 AM MST 4:57 PM MST
Civil Twilight 7:24 AM MST 5:30 PM MST
Nautical Twilight 6:48 AM MST 6:06 PM MST
Astronomical Twilight 6:13 AM MST 6:42 PM MST
Moon 10:18 AM MST (12/5) 8:26 PM MST (12/5)
Length of Visible Light 10h 05m
Length of Day
8h 59m
Waxing Crescent, 11% of the Moon is Illuminated
Dec 5
Waxing Crescent
Dec 9
First Quarter
Dec 17
Full
Dec 25
Last Quarter
Jan 1
New

Hourly Weather History & Observations

Time (MST) Temp. Windchill Dew Point Humidity Pressure Visibility Wind Dir Wind Speed Gust Speed Precip Events Conditions
12:55 AM -5.1 °F - -11.0 °F 76% 30.33 in 10.0 mi Calm Calm - N/A   Clear
1:55 AM -7.1 °F - -11.9 °F 79% 30.33 in 10.0 mi Calm Calm - N/A   Clear
2:55 AM -9.0 °F - -14.1 °F 79% 30.34 in 10.0 mi Calm Calm - N/A   Clear
3:55 AM -9.0 °F - -14.1 °F 79% 30.34 in 10.0 mi Calm Calm - N/A   Clear
4:55 AM -8.0 °F - -14.1 °F 75% 30.34 in 10.0 mi Calm Calm - N/A   Clear
5:55 AM -9.0 °F - -14.1 °F 79% 30.36 in 10.0 mi Calm Calm - N/A   Clear
6:55 AM -9.0 °F - -15.0 °F 75% 30.36 in 10.0 mi Calm Calm - N/A   Clear
7:55 AM -11.9 °F - -17.0 °F 78% 30.39 in 10.0 mi Calm Calm - N/A   Clear
8:55 AM -9.0 °F - -11.9 °F 87% 30.39 in 10.0 mi Calm Calm - N/A   Clear
9:55 AM -5.1 °F - -11.0 °F 76% 30.39 in 10.0 mi Calm Calm - N/A   Clear
10:55 AM -2.0 °F - -9.9 °F 69% 30.38 in 10.0 mi Calm Calm - N/A   Clear
11:55 AM 1.0 °F - -9.9 °F 60% 30.33 in 10.0 mi Calm Calm - N/A   Clear
12:55 PM 3.0 °F - -9.0 °F 57% 30.30 in 10.0 mi Calm Calm - N/A   Clear
1:55 PM 3.9 °F - -7.1 °F 60% 30.28 in 10.0 mi Calm Calm - N/A   Clear
2:55 PM 5.0 °F - -7.1 °F 58% 30.27 in 10.0 mi Calm Calm - N/A   Clear
3:55 PM 5.0 °F - -6.0 °F 61% 30.28 in 10.0 mi Calm Calm - N/A   Clear
4:55 PM 1.0 °F -6.7 °F -6.0 °F 72% 30.30 in 10.0 mi West 3.5 mph - N/A   Clear
5:55 PM 1.9 °F - -6.0 °F 69% 30.30 in 10.0 mi Calm Calm - N/A   Partly Cloudy
6:55 PM 1.0 °F - -7.1 °F 69% 30.31 in 10.0 mi Calm Calm - N/A   Partly Cloudy
7:55 PM -0.9 °F - -8.0 °F 72% 30.33 in 10.0 mi Calm Calm - N/A   Scattered Clouds
8:55 PM -2.9 °F - -9.0 °F 75% 30.34 in 10.0 mi Calm Calm - N/A   Partly Cloudy
9:55 PM -4.0 °F - -9.0 °F 79% 30.33 in 10.0 mi Calm Calm - N/A   Clear
10:55 PM -5.1 °F -13.6 °F -11.0 °F 76% 30.33 in 10.0 mi SSE 3.5 mph - N/A   Clear
11:55 PM -6.0 °F - -11.0 °F 79% 30.33 in 10.0 mi Calm Calm - N/A   Clear